Flight Details

Back

 FLIGHT DETAILS

Pilot: GLD1793 Tiago I. Aircraft: ATCCOM.ATC_NAME_BEECHCR Distance: 41NM
From: TFFA To: TFFR Duration: 0.48
Validation: Valid Tipo: Charter Tail Number: PT-GLD
ZFW: 5221 Block Fuel/Init FOB 96flight_details.php/70 Flight Fuel 96
Passengers: 5 Cargo: 125 Alternate: TFFR
Departure Time: 1809 Cruise Speed: 194 Flight Level: FL40
Flight Type: IFR Aircraft Type: BE58 Weight Unit: Kg
Date: 05/05/2026 Comments: GOLD ACARS Network: VATSIM
Crash: No Validator Comments: Rating 90

 ROUTE

ROUTE DCT PPR DCT
REMARKS OPR/GOLD VIRTUAL AIRLINES PER/C RMK/FROM TFFA RMK/PIC GLD1793

 FLIGHT PENALTIES

Crash OK Beacon Lights off with engine on OK Speed above 250KIAS below 10.000ft OK
Landing Lights OFF below 10.000ft OK Landing Lights ON above 10.000ft OK Stall OK
Overspeed OK Pause OK Refuel OK
Slew OK Taxi Lights OFF during taxi OK Land Lights OFF during take off OK
Landing Lights OFF during landing OK Landed in not planned airfield OK Taxi speed above 25 kt OK
Incorrect QNH during take off OK Incorrect QNH during landing Fault

 LANDING ANALYSIS

Wind: 130º/18 kt Heading: 106
VS: -136 ft/min IAS: 104 kt
Gforce: 1.2064 G Bank: -0.31
Pitch 3.12 Flaps 50
Nav Lights ON Landing Lights ON
Beacon Lights ON Strobe Lights ON

 FLIGHT MAP

 FIGHT VERTICAL PROFILE

 FLIGHT MAIN EVENTS

DATEEVENTIASALTITUDE
2026-05-05 18:09:20 GOLD ACARS VERSION 3.3.7.100
2026-05-05 18:09:20 BOARDING0-61
2026-05-05 18:13:21 BCN LIGHTS ON0-61
2026-05-05 18:13:22 STB LIGHTS ON0-61
2026-05-05 18:13:23 NAV LIGHTS ON0-61
2026-05-05 18:20:06 STARTING ENGINE 10-61
2026-05-05 18:20:35 STARTING ENGINE 20-61
2026-05-05 18:21:09 TAXI LIGHTS ON0-61
2026-05-05 18:21:10 LND LIGHTS ON0-61
2026-05-05 18:21:46 TAXI TO THE RWY0-63
2026-05-05 18:22:02 FLAP 50%10-64
2026-05-05 18:22:49 CLIMBING107-51
2026-05-05 18:22:54 GEAR UP11232
2026-05-05 18:22:59 FLAP 0%112126
2026-05-05 18:23:21 CRUISE124773
2026-05-05 18:23:23 LANDING131771
2026-05-05 18:23:45 CLIMBING165533
2026-05-05 18:24:06 AP ENGAGED167809
2026-05-05 18:24:40 CRUISE1581593
2026-05-05 18:32:55 AP DISENGAGED1791597
2026-05-05 18:33:06 LANDING1911434
2026-05-05 18:33:41 CLIMBING175953
2026-05-05 18:33:41 TAKE OFF TRANSPONDER NOT IN C MODE175953
2026-05-05 18:33:44 GEAR DOWN167991
2026-05-05 18:33:45 CRUISE165997
2026-05-05 18:33:46 FLAP 50%163996
2026-05-05 18:33:47 LANDING162994
2026-05-05 18:34:21 CLIMBING153786
2026-05-05 18:34:22 CRUISE154795
2026-05-05 18:34:24 LANDING155793
2026-05-05 18:35:35 LANDED AIRPORT [TFFR]105-42
2026-05-05 18:35:35 LANDED - VS: -136 ft/min104-43
2026-05-05 18:35:36 LANDING WITH INCORRECT QNH - SET:1013 LOCAL: 1016104-43
2026-05-05 18:35:41 STOPPING ENGINE 178-41
2026-05-05 18:35:42 STOPPING ENGINE 276-41
2026-05-05 18:35:50 TAXI TO THE GATE19-39
2026-05-05 18:36:04 STARTING ENGINE 10-39
2026-05-05 18:37:25 AT THE GATE0-43
2026-05-05 18:37:39 STOPPING ENGINE 10-43
2026-05-05 18:38:05 STB LIGHTS OFF0-43
2026-05-05 18:38:06 BCN LIGHTS OFF0-43
2026-05-05 18:38:12 LANDED NOT IN THE PLANNED AIRPORT [TFFS] - [lat: 16,2621422183806] - [long: -61,5236089636721]0-43
2026-05-05 18:38:13 FLIGHT FINISHED0-43
2026-05-05 18:09:20 GOLD ACARS VERSION 3.3.7.100
2026-05-05 18:09:20 BOARDING0-61
2026-05-05 18:13:21 BCN LIGHTS ON0-61
2026-05-05 18:13:22 STB LIGHTS ON0-61
2026-05-05 18:13:23 NAV LIGHTS ON0-61
2026-05-05 18:20:06 STARTING ENGINE 10-61
2026-05-05 18:20:35 STARTING ENGINE 20-61
2026-05-05 18:21:09 TAXI LIGHTS ON0-61
2026-05-05 18:21:10 LND LIGHTS ON0-61
2026-05-05 18:21:46 TAXI TO THE RWY0-63
2026-05-05 18:22:02 FLAP 50%10-64
2026-05-05 18:22:49 CLIMBING107-51
2026-05-05 18:22:54 GEAR UP11232
2026-05-05 18:22:59 FLAP 0%112126
2026-05-05 18:23:21 CRUISE124773
2026-05-05 18:23:23 LANDING131771
2026-05-05 18:23:45 CLIMBING165533
2026-05-05 18:24:06 AP ENGAGED167809
2026-05-05 18:24:40 CRUISE1581593
2026-05-05 18:32:55 AP DISENGAGED1791597
2026-05-05 18:33:06 LANDING1911434
2026-05-05 18:33:41 CLIMBING175953
2026-05-05 18:33:41 TAKE OFF TRANSPONDER NOT IN C MODE175953
2026-05-05 18:33:44 GEAR DOWN167991
2026-05-05 18:33:45 CRUISE165997
2026-05-05 18:33:46 FLAP 50%163996
2026-05-05 18:33:47 LANDING162994
2026-05-05 18:34:21 CLIMBING153786
2026-05-05 18:34:22 CRUISE154795
2026-05-05 18:34:24 LANDING155793
2026-05-05 18:35:35 LANDED AIRPORT [TFFR]105-42
2026-05-05 18:35:35 LANDED - VS: -136 ft/min104-43
2026-05-05 18:35:36 LANDING WITH INCORRECT QNH - SET:1013 LOCAL: 1016104-43
2026-05-05 18:35:41 STOPPING ENGINE 178-41
2026-05-05 18:35:42 STOPPING ENGINE 276-41
2026-05-05 18:35:50 TAXI TO THE GATE19-39
2026-05-05 18:36:04 STARTING ENGINE 10-39
2026-05-05 18:37:25 AT THE GATE0-43
2026-05-05 18:37:39 STOPPING ENGINE 10-43
2026-05-05 18:38:05 STB LIGHTS OFF0-43
2026-05-05 18:38:06 BCN LIGHTS OFF0-43
2026-05-05 18:38:12 LANDED NOT IN THE PLANNED AIRPORT [TFFS] - [lat: 16,2621422183806] - [long: -61,5236089636721]0-43
2026-05-05 18:38:13 FLIGHT FINISHED0-43
2026-05-05 18:43:50 NAV LIGHTS OFF0-43
2026-05-05 18:43:50 TAXI LIGHTS OFF0-43
2026-05-05 18:43:51 LND LIGHTS OFF0-43
2026-05-05 18:09:20 GOLD ACARS VERSION 3.3.7.100
2026-05-05 18:09:20 BOARDING0-61
2026-05-05 18:13:21 BCN LIGHTS ON0-61
2026-05-05 18:13:22 STB LIGHTS ON0-61
2026-05-05 18:13:23 NAV LIGHTS ON0-61
2026-05-05 18:20:06 STARTING ENGINE 10-61
2026-05-05 18:20:35 STARTING ENGINE 20-61
2026-05-05 18:21:09 TAXI LIGHTS ON0-61
2026-05-05 18:21:10 LND LIGHTS ON0-61
2026-05-05 18:21:46 TAXI TO THE RWY0-63
2026-05-05 18:22:02 FLAP 50%10-64
2026-05-05 18:22:49 CLIMBING107-51
2026-05-05 18:22:54 GEAR UP11232
2026-05-05 18:22:59 FLAP 0%112126
2026-05-05 18:23:21 CRUISE124773
2026-05-05 18:23:23 LANDING131771
2026-05-05 18:23:45 CLIMBING165533
2026-05-05 18:24:06 AP ENGAGED167809
2026-05-05 18:24:40 CRUISE1581593
2026-05-05 18:32:55 AP DISENGAGED1791597
2026-05-05 18:33:06 LANDING1911434
2026-05-05 18:33:41 CLIMBING175953
2026-05-05 18:33:41 TAKE OFF TRANSPONDER NOT IN C MODE175953
2026-05-05 18:33:44 GEAR DOWN167991
2026-05-05 18:33:45 CRUISE165997
2026-05-05 18:33:46 FLAP 50%163996
2026-05-05 18:33:47 LANDING162994
2026-05-05 18:34:21 CLIMBING153786
2026-05-05 18:34:22 CRUISE154795
2026-05-05 18:34:24 LANDING155793
2026-05-05 18:35:35 LANDED AIRPORT [TFFR]105-42
2026-05-05 18:35:35 LANDED - VS: -136 ft/min104-43
2026-05-05 18:35:36 LANDING WITH INCORRECT QNH - SET:1013 LOCAL: 1016104-43
2026-05-05 18:35:41 STOPPING ENGINE 178-41
2026-05-05 18:35:42 STOPPING ENGINE 276-41
2026-05-05 18:35:50 TAXI TO THE GATE19-39
2026-05-05 18:36:04 STARTING ENGINE 10-39
2026-05-05 18:37:25 AT THE GATE0-43
2026-05-05 18:37:39 STOPPING ENGINE 10-43
2026-05-05 18:38:05 STB LIGHTS OFF0-43
2026-05-05 18:38:06 BCN LIGHTS OFF0-43
2026-05-05 18:38:12 LANDED NOT IN THE PLANNED AIRPORT [TFFS] - [lat: 16,2621422183806] - [long: -61,5236089636721]0-43
2026-05-05 18:38:13 FLIGHT FINISHED0-43
2026-05-05 18:43:50 NAV LIGHTS OFF0-43
2026-05-05 18:43:50 TAXI LIGHTS OFF0-43
2026-05-05 18:43:51 LND LIGHTS OFF0-43
2026-05-05 18:09:20 GOLD ACARS VERSION 3.3.7.100
2026-05-05 18:09:20 BOARDING0-61
2026-05-05 18:13:21 BCN LIGHTS ON0-61
2026-05-05 18:13:22 STB LIGHTS ON0-61
2026-05-05 18:13:23 NAV LIGHTS ON0-61
2026-05-05 18:20:06 STARTING ENGINE 10-61
2026-05-05 18:20:35 STARTING ENGINE 20-61
2026-05-05 18:21:09 TAXI LIGHTS ON0-61
2026-05-05 18:21:10 LND LIGHTS ON0-61
2026-05-05 18:21:46 TAXI TO THE RWY0-63
2026-05-05 18:22:02 FLAP 50%10-64
2026-05-05 18:22:49 CLIMBING107-51
2026-05-05 18:22:54 GEAR UP11232
2026-05-05 18:22:59 FLAP 0%112126
2026-05-05 18:23:21 CRUISE124773
2026-05-05 18:23:23 LANDING131771
2026-05-05 18:23:45 CLIMBING165533
2026-05-05 18:24:06 AP ENGAGED167809
2026-05-05 18:24:40 CRUISE1581593
2026-05-05 18:32:55 AP DISENGAGED1791597
2026-05-05 18:33:06 LANDING1911434
2026-05-05 18:33:41 CLIMBING175953
2026-05-05 18:33:41 TAKE OFF TRANSPONDER NOT IN C MODE175953
2026-05-05 18:33:44 GEAR DOWN167991
2026-05-05 18:33:45 CRUISE165997
2026-05-05 18:33:46 FLAP 50%163996
2026-05-05 18:33:47 LANDING162994
2026-05-05 18:34:21 CLIMBING153786
2026-05-05 18:34:22 CRUISE154795
2026-05-05 18:34:24 LANDING155793
2026-05-05 18:35:35 LANDED AIRPORT [TFFR]105-42
2026-05-05 18:35:35 LANDED - VS: -136 ft/min104-43
2026-05-05 18:35:36 LANDING WITH INCORRECT QNH - SET:1013 LOCAL: 1016104-43
2026-05-05 18:35:41 STOPPING ENGINE 178-41
2026-05-05 18:35:42 STOPPING ENGINE 276-41
2026-05-05 18:35:50 TAXI TO THE GATE19-39
2026-05-05 18:36:04 STARTING ENGINE 10-39
2026-05-05 18:37:25 AT THE GATE0-43
2026-05-05 18:37:39 STOPPING ENGINE 10-43
2026-05-05 18:38:05 STB LIGHTS OFF0-43
2026-05-05 18:38:06 BCN LIGHTS OFF0-43
2026-05-05 18:38:12 LANDED NOT IN THE PLANNED AIRPORT [TFFS] - [lat: 16,2621422183806] - [long: -61,5236089636721]0-43
2026-05-05 18:38:13 FLIGHT FINISHED0-43
2026-05-05 18:43:50 NAV LIGHTS OFF0-43
2026-05-05 18:43:50 TAXI LIGHTS OFF0-43
2026-05-05 18:43:51 LND LIGHTS OFF0-43
2026-05-05 18:09:20 GOLD ACARS VERSION 3.3.7.100
2026-05-05 18:09:20 BOARDING0-61
2026-05-05 18:13:21 BCN LIGHTS ON0-61
2026-05-05 18:13:22 STB LIGHTS ON0-61
2026-05-05 18:13:23 NAV LIGHTS ON0-61
2026-05-05 18:20:06 STARTING ENGINE 10-61
2026-05-05 18:20:35 STARTING ENGINE 20-61
2026-05-05 18:21:09 TAXI LIGHTS ON0-61
2026-05-05 18:21:10 LND LIGHTS ON0-61
2026-05-05 18:21:46 TAXI TO THE RWY0-63
2026-05-05 18:22:02 FLAP 50%10-64
2026-05-05 18:22:49 CLIMBING107-51
2026-05-05 18:22:54 GEAR UP11232
2026-05-05 18:22:59 FLAP 0%112126
2026-05-05 18:23:21 CRUISE124773
2026-05-05 18:23:23 LANDING131771
2026-05-05 18:23:45 CLIMBING165533
2026-05-05 18:24:06 AP ENGAGED167809
2026-05-05 18:24:40 CRUISE1581593
2026-05-05 18:32:55 AP DISENGAGED1791597
2026-05-05 18:33:06 LANDING1911434
2026-05-05 18:33:41 CLIMBING175953
2026-05-05 18:33:41 TAKE OFF TRANSPONDER NOT IN C MODE175953
2026-05-05 18:33:44 GEAR DOWN167991
2026-05-05 18:33:45 CRUISE165997
2026-05-05 18:33:46 FLAP 50%163996
2026-05-05 18:33:47 LANDING162994
2026-05-05 18:34:21 CLIMBING153786
2026-05-05 18:34:22 CRUISE154795
2026-05-05 18:34:24 LANDING155793
2026-05-05 18:35:35 LANDED AIRPORT [TFFR]105-42
2026-05-05 18:35:35 LANDED - VS: -136 ft/min104-43
2026-05-05 18:35:36 LANDING WITH INCORRECT QNH - SET:1013 LOCAL: 1016104-43
2026-05-05 18:35:41 STOPPING ENGINE 178-41
2026-05-05 18:35:42 STOPPING ENGINE 276-41
2026-05-05 18:35:50 TAXI TO THE GATE19-39
2026-05-05 18:36:04 STARTING ENGINE 10-39
2026-05-05 18:37:25 AT THE GATE0-43
2026-05-05 18:37:39 STOPPING ENGINE 10-43
2026-05-05 18:38:05 STB LIGHTS OFF0-43
2026-05-05 18:38:06 BCN LIGHTS OFF0-43
2026-05-05 18:38:12 LANDED NOT IN THE PLANNED AIRPORT [TFFS] - [lat: 16,2621422183806] - [long: -61,5236089636721]0-43
2026-05-05 18:38:13 FLIGHT FINISHED0-43
2026-05-05 18:43:50 NAV LIGHTS OFF0-43
2026-05-05 18:43:50 TAXI LIGHTS OFF0-43
2026-05-05 18:43:51 LND LIGHTS OFF0-43

 ACARS DATA

DATEIASGSALTITUDEFUEL USED OATFlight Phase
2026-05-05 18:11:2100-61027BOARDING
2026-05-05 18:12:2200-61027BOARDING
2026-05-05 18:13:2300-61027BOARDING
2026-05-05 18:14:2300-61027BOARDING
2026-05-05 18:15:2400-61027BOARDING
2026-05-05 18:16:2500-61027BOARDING
2026-05-05 18:17:2600-61027BOARDING
2026-05-05 18:18:2600-61027BOARDING
2026-05-05 18:19:2700-61027BOARDING
2026-05-05 18:20:2800-61027BOARDING
2026-05-05 18:21:2900-61027BOARDING
2026-05-05 18:22:3053-64027BOARDING
2026-05-05 18:23:31151168697225TAXI TO THE RWY
2026-05-05 18:24:311571741428422LANDING
2026-05-05 18:25:321891981611722CLIMBING
2026-05-05 18:26:331932081612922CRUISE
2026-05-05 18:27:3419221116041222CRUISE
2026-05-05 18:28:3519320916011422CRUISE
2026-05-05 18:29:3519321815901623CRUISE
2026-05-05 18:30:3619321716051923CRUISE
2026-05-05 18:31:3719321616062123CRUISE
2026-05-05 18:32:3819621716032423CRUISE
2026-05-05 18:33:391811999452425CRUISE
2026-05-05 18:34:391511473532529LANDING
2026-05-05 18:35:408777-422629LANDING
2026-05-05 18:36:41014-412629LANDED - VS: -136 ft/min
2026-05-05 18:37:4200-432629TAXI TO THE GATE
2026-05-05 18:47:4300-43029AT THE GATE